This is the latest recevied weather packets stored in our database for station/object DG4DAZ-6. If no packets are shown the sender has not sent any weather packets the latest 10 day(s).
| Time | Temp. | Humidity | Pressure | Rain* | Wind** | Luminosity | Snow |
|---|---|---|---|---|---|---|---|
| 1777656082 | 19.44° C | 34% | 1022.1 hPa | 0 mm | - | 157 W/m² | - |
| 1777655484 | 19.44° C | 34% | 1022.1 hPa | 0 mm | - | 189 W/m² | - |
| 1777654883 | 19.44° C | 33% | 1022.2 hPa | 0 mm | - | 26 W/m² | - |
| 1777654282 | 19.44° C | 33% | 1022.3 hPa | 0 mm | - | 26 W/m² | - |
| 1777653684 | 20° C | 33% | 1022.3 hPa | 0 mm | - | 28 W/m² | - |
| 1777653083 | 20° C | 33% | 1022.3 hPa | 0 mm | - | 28 W/m² | - |
| 1777652482 | 20° C | 32% | 1022.5 hPa | 0 mm | - | 30 W/m² | - |
| 1777651884 | 20° C | 32% | 1022.5 hPa | 0 mm | - | 32 W/m² | - |
| 1777651284 | 20° C | 32% | 1022.6 hPa | 0 mm | - | 81 W/m² | - |
| 1777650684 | 20° C | 31% | 1022.7 hPa | 0 mm | - | 33 W/m² | - |
| 1777650083 | 20.56° C | 30% | 1022.8 hPa | 0 mm | - | 33 W/m² | - |
| 1777649483 | 20.56° C | 30% | 1022.8 hPa | 0 mm | - | 35 W/m² | - |
| 1777648884 | 20.56° C | 30% | 1023 hPa | 0 mm | - | 36 W/m² | - |
| 1777648283 | 20.56° C | 30% | 1023.2 hPa | 0 mm | - | 37 W/m² | - |
| 1777647684 | 21.11° C | 29% | 1023.2 hPa | 0 mm | - | 39 W/m² | - |
| 1777647083 | 21.11° C | 29% | 1023.3 hPa | 0 mm | - | 40 W/m² | - |
| 1777646483 | 20.56° C | 31% | 1023.3 hPa | 0 mm | - | 44 W/m² | - |
| 1777645882 | 20.56° C | 30% | 1023.4 hPa | 0 mm | - | 49 W/m² | - |
| 1777645284 | 21.11° C | 31% | 1023.5 hPa | 0 mm | - | 597 W/m² | - |
| 1777644683 | 20.56° C | 29% | 1023.5 hPa | 0 mm | - | 643 W/m² | - |
| 1777644084 | 21.11° C | 29% | 1023.6 hPa | 0 mm | - | 663 W/m² | - |
| 1777643483 | 21.11° C | 32% | 1023.7 hPa | 0 mm | - | 646 W/m² | - |
| 1777642883 | 20.56° C | 32% | 1023.8 hPa | 0 mm | - | 698 W/m² | - |
| 1777642283 | 20.56° C | 30% | 1024 hPa | 0 mm | - | 714 W/m² | - |
| 1777641683 | 20.56° C | 30% | 1024.1 hPa | 0 mm | - | 728 W/m² | - |
* Rain latest hour (hover to see other rain measurements)
** Current wind speed in m/s (hover to see current wind gust speed)